, AK

(GMT )
Denali Park

Weather History for PAIN - May, 2019

Change the Weather History Date:

Monday, May 20, 2019

  Actual Average Record
Temperature  
Mean Temperature 45 °F -  
Max Temperature 60 °F 55 °F 75 °F (2002)
Min Temperature 30 °F 30 °F 15 °F (2013)
Degree Days  
Heating Degree Days 20    
Moisture  
Dew Point 29 °F    
Average Humidity 53    
Maximum Humidity 89    
Minimum Humidity 28    
Precipitation  
Precipitation 0.00 in - - ()
Sea Level Pressure  
Sea Level Pressure 29.78 in    
Wind  
Wind Speed 4 mph (South)    
Max Wind Speed 14 mph    
Max Gust Speed 21 mph    
Visibility 10 miles    
Events      
Averages and records for this station are not official NWS values.
T = Trace of Precipitation, MM = Missing Value Source: NWS Daily Summary

Daily Weather History Graph

Daily Weather History Graph

Search for Another Location

Airport or City:

Astronomy

May. 20, 2019 Rise Set
Actual Time 4:30 AM AKDT 11:16 PM AKDT
Civil Twilight 2:28 AM AKDT 1:30 AM AKDT
Nautical Twilight Sun does not set Sun does not set
Astronomical Twilight Sun does not set Sun does not set
Moon 12:26 AM AKDT (5/20) 6:00 AM AKDT (5/20)
Length of Visible Light 23h 01m
Length of Day
18h 46m
Waning Gibbous, 96% of the Moon is Illuminated
May 20
Waning Gibbous
May 26
Last Quarter
Jun 3
New
Jun 9
First Quarter
Jun 17
Full

Hourly Weather History & Observations

Time (AKDT) Temp. Windchill Dew Point Humidity Pressure Visibility Wind Dir Wind Speed Gust Speed Precip Events Conditions
12:56 AM 42.1 °F 39.2 °F 30.9 °F 65% 29.71 in 10.0 mi SW 4.6 mph - N/A   Clear
1:56 AM 41.0 °F 38.0 °F 30.9 °F 67% 29.71 in 10.0 mi SSW 4.6 mph - N/A   Clear
2:56 AM 37.9 °F 35.5 °F 30.0 °F 73% 29.71 in 10.0 mi SSW 3.5 mph - N/A   Clear
3:56 AM 34.0 °F - 28.9 °F 82% 29.72 in 10.0 mi Calm Calm - N/A   Clear
4:56 AM 32.0 °F - 28.0 °F 85% 29.73 in 10.0 mi Calm Calm - N/A   Clear
5:56 AM 30.9 °F - 28.0 °F 89% 29.74 in 10.0 mi Calm Calm - N/A   Clear
6:56 AM 34.0 °F - 28.9 °F 82% 29.75 in 10.0 mi Calm Calm - N/A   Clear
7:56 AM 39.0 °F - 30.0 °F 70% 29.75 in 10.0 mi Calm Calm - N/A   Clear
8:56 AM 42.1 °F - 30.9 °F 65% 29.75 in 10.0 mi Calm Calm - N/A   Clear
9:56 AM 45.0 °F 43.5 °F 32.0 °F 60% 29.75 in 10.0 mi SE 3.5 mph - 0.00 in   Clear
10:56 AM 51.1 °F - 34.0 °F 52% 29.74 in 10.0 mi Variable 3.5 mph - N/A   Clear
11:56 AM 60.1 °F - 30.9 °F 33% 29.72 in 10.0 mi South 9.2 mph 16.1 mph N/A   Scattered Clouds
12:56 PM 59.0 °F - 32.0 °F 36% 29.74 in 10.0 mi South 9.2 mph 18.4 mph N/A   Mostly Cloudy
1:56 PM 59.0 °F - 32.0 °F 36% 29.76 in 10.0 mi South 9.2 mph 17.3 mph N/A   Mostly Cloudy
2:56 PM 59.0 °F - 32.0 °F 36% 29.78 in 10.0 mi SSW 13.8 mph 20.7 mph N/A   Overcast
3:56 PM 57.0 °F - 33.1 °F 40% 29.82 in 10.0 mi SSE 9.2 mph 16.1 mph N/A   Clear
4:56 PM 55.9 °F - 32.0 °F 40% 29.82 in 10.0 mi SSE 8.1 mph - N/A   Clear
5:56 PM 57.0 °F - 28.0 °F 33% 29.83 in 10.0 mi South 8.1 mph - N/A   Clear
6:56 PM 57.9 °F - 25.0 °F 28% 29.82 in 10.0 mi Variable 5.8 mph 17.3 mph N/A   Clear
7:56 PM 57.0 °F - 25.0 °F 29% 29.83 in 10.0 mi Variable 5.8 mph - N/A   Clear
8:56 PM 55.0 °F - 25.0 °F 31% 29.84 in 10.0 mi SSE 6.9 mph - N/A   Clear
9:56 PM 53.1 °F - 26.1 °F 35% 29.87 in 10.0 mi Variable 4.6 mph - N/A   Clear
10:56 PM 46.9 °F - 27.0 °F 46% 29.90 in 10.0 mi Calm Calm - N/A   Clear
11:56 PM 43.0 °F 41.3 °F 27.0 °F 53% 29.92 in 10.0 mi Variable 3.5 mph - N/A   Clear